Temp_Advection
nan nan nan nan nan nan nan nan nan nan nan nan nan nan nan nan nan nan nan nan nan nan nan nan nan nan nan nan nan nan nan nan nan nan nan nan nan nan nan nan nan nan nan nan
nan 2 0 -0 0 0 -1 -0 -0 0 0 -0 -0 -1 -0 -0 0 -0 -0 -0 -0 -0 0 -0 0 -0 -0 0 0 0 0 -0 -0 0 -0 0 0 -0 -0 0 -0 -0 0 nan
nan 1 -0 -0 0 0 -0 -0 -0 -0 -0 -1 -1 -0 -0 -0 -0 0 -0 -0 -0 0 0 -0 -0 -0 0 0 0 -0 -0 0 -0 -0 0 0 -0 -0 0 -0 -0 -0 -0 nan
nan 0 -0 0 0 0 0 0 -0 -1 -0 -1 -1 -0 0 -0 -0 -0 0 0 -0 0 0 0 -0 -0 -0 0 0 -0 0 0 0 -0 -0 -0 -0 0 0 -0 -0 -0 -0 nan
nan 0 0 0 0 0 0 0 0 -0 0 -0 -0 0 -0 -0 -0 0 0 -0 0 0 -0 -0 0 0 -0 -0 -0 0 -0 -0 0 -0 0 0 0 -0 -0 -0 -0 -0 0 nan
nan 0 -0 0 0 -0 -0 -0 -0 -0 0 0 -0 -0 0 0 -0 -0 -0 0 0 0 -0 -0 -0 -0 0 0 -0 -0 -0 -0 0 0 0 0 0 -1 -0 -0 -0 0 -0 nan
nan 0 -0 0 0 0 -0 -0 -0 -0 0 -0 0 0 0 0 0 0 -0 -0 -0 -0 -0 -0 -0 -0 0 -0 -0 -0 -0 -0 -0 -0 -0 -0 -0 0 0 -0 -0 0 0 nan
nan 0 0 0 0 0 -0 0 0 -0 -0 0 0 0 0 -0 0 0 0 -0 0 0 -0 -0 -0 0 0 0 0 0 -0 -0 -0 -0 -0 -0 0 0 -0 0 -0 0 -0 nan
nan 1 0 0 0 0 0 0 0 -0 -0 -0 0 0 0 0 -0 0 -0 0 0 0 -0 -0 0 -0 -0 0 0 -0 -0 0 0 -0 -0 -0 0 0 0 -0 -0 0 -0 nan
nan 0 0 0 0 0 1 0 1 -0 -0 0 0 0 0 0 0 -0 0 0 0 -0 0 0 -0 0 -0 -0 -0 -0 0 0 0 -0 -0 -0 0 0 0 -0 0 0 -0 nan
nan -0 -0 0 0 0 0 0 0 -0 -1 0 0 0 0 0 -0 -0 0 0 0 -0 0 0 -0 0 -0 0 0 -0 -0 -0 -0 -0 -0 -0 1 -0 -0 0 0 -0 -0 nan
nan -0 0 0 0 0 -0 0 0 -0 -1 -0 1 0 0 0 0 0 -0 0 -0 0 0 -0 -0 -0 0 -0 0 -0 0 -0 -0 -0 -0 0 -0 -0 -0 -0 -0 -0 -0 nan
nan 0 0 0 0 0 -0 -1 -0 -1 -3 -0 -0 -0 0 0 0 0 -0 -0 0 0 0 0 -0 0 -0 0 0 -0 0 -0 0 0 0 0 0 -0 -0 -0 -0 -0 -0 nan
nan 0 0 0 0 -0 0 -0 -1 -1 -1 -1 -0 0 0 0 0 0 0 0 -0 -0 0 0 0 -0 -0 -0 -0 -0 0 -0 -0 -0 -1 -1 -1 -1 -0 -0 -0 -0 -0 nan
nan 0 -0 0 -0 0 -0 -0 -0 -0 -1 -1 -0 -0 -0 0 0 0 0 0 0 0 0 0 0 0 0 0 -0 -0 -0 0 -0 -0 -1 -0 -0 -0 -0 -0 -0 -0 -1 nan
nan 1 0 0 0 1 1 -0 -0 -0 -1 -1 -0 -0 -0 0 0 0 0 0 0 0 -0 -0 -0 0 0 -0 -0 0 -0 -0 -0 -0 -0 -0 -0 -1 -0 -0 -0 -0 -0 nan
nan 1 1 0 1 1 0 0 0 0 -0 -1 -0 -0 -0 -0 0 0 0 0 0 0 0 -0 -0 0 0 0 -0 1 -0 -0 -0 -0 -0 -0 -0 -0 -1 -0 -0 -0 -0 nan
nan 1 1 1 0 0 0 0 1 0 -0 -1 -0 -0 -0 -0 -0 -0 -0 -0 0 0 -0 0 -0 0 0 -0 -1 -0 -0 0 -0 0 0 0 -0 -0 -1 -0 -0 -0 -0 nan
nan 0 -0 0 0 0 -0 0 0 0 -0 -0 -0 -0 -0 -0 -0 -0 0 0 -0 0 -0 0 -0 0 -0 -1 -0 0 0 0 0 0 0 -0 0 0 -0 -1 -1 -0 -0 nan
nan 1 1 0 0 0 0 0 0 -0 -0 -0 -0 -0 -0 0 -0 -0 -0 -0 0 -0 -0 -0 -0 -0 -1 -0 0 0 0 0 0 0 -0 0 -0 -0 -0 -0 -0 -0 -1 nan
nan -1 -0 2 2 0 -0 -0 0 0 0 0 0 -0 -0 0 0 -0 -0 -0 0 -0 -0 -0 0 -0 -0 0 0 0 0 0 0 0 0 -0 0 -0 -0 -0 -0 -0 -0 nan
nan -1 -3 0 0 0 0 -0 0 0 -0 -0 0 0 -0 0 0 -0 -0 -0 0 0 -0 -0 -0 -0 0 0 0 0 0 0 0 0 0 0 0 0 -0 -0 -0 0 0 nan
nan -1 -0 -0 0 0 -0 -0 -0 0 0 -0 -0 -0 0 -0 0 0 -0 -0 -0 -0 0 0 -0 0 0 0 0 0 0 0 0 0 0 0 0 0 0 0 0 -0 0 nan
nan -0 -0 0 0 -0 0 0 -0 -0 0 0 0 -0 0 -0 0 0 0 0 0 0 0 -0 -0 0 0 0 0 -0 0 0 0 0 0 0 0 0 0 0 0 0 -0 nan
nan -0 -0 0 -0 0 0 1 0 0 0 -0 -0 0 -0 -0 0 0 0 0 0 0 0 -0 0 0 0 0 0 0 0 0 -0 0 0 0 0 0 -0 -0 0 0 0 nan
nan -0 -0 0 -0 0 0 0 0 0 0 0 -0 -0 0 0 0 0 0 0 0 -0 -0 -0 0 0 0 -0 0 0 0 0 0 0 0 0 1 1 -0 -0 -0 0 0 nan
nan nan nan nan nan nan nan nan nan nan nan nan nan nan nan nan nan nan nan nan nan nan nan nan nan nan nan nan nan nan nan nan nan nan nan nan nan nan nan nan nan nan nan nan
Wind_Speed
36 35 25 21 17 15 19 12 3 8 11 4 2 3 5 1 7 5 2 3 1 3 6 4 2 3 1 3 3 1 6 1 3 3 5 3 6 2 7 3 3 1 3 4
33 34 25 23 19 18 24 10 6 12 14 4 4 6 4 3 5 5 4 3 1 4 3 2 5 6 1 6 4 3 3 2 3 2 3 4 5 5 6 1 3 3 3 4
28 34 25 24 20 21 22 9 4 4 11 12 5 6 7 6 1 1 1 2 2 3 4 1 4 5 2 2 2 1 4 4 0 3 1 2 4 8 8 5 2 3 5 4
31 32 26 24 22 24 23 9 5 10 5 8 10 2 7 7 5 2 5 4 5 3 2 4 4 8 5 4 1 1 2 3 3 2 2 2 0 4 8 7 11 5 5 9
34 30 27 24 24 26 25 8 5 9 1 4 10 5 5 9 4 1 6 3 3 4 5 7 2 5 6 5 5 5 1 2 3 2 3 2 3 7 8 12 11 10 12 15
39 31 29 28 28 29 13 15 11 7 6 5 6 7 6 6 10 2 5 4 2 4 5 5 4 5 4 3 5 6 6 4 2 1 2 2 5 12 13 7 7 10 13 12
41 32 29 28 27 30 15 18 15 5 3 4 4 3 5 8 3 3 4 4 3 3 2 2 2 3 1 0 3 4 1 3 2 1 1 1 4 5 5 8 6 7 5 7
36 30 27 26 25 30 24 15 11 4 3 7 6 7 6 10 6 4 5 5 3 3 1 1 3 2 3 5 2 3 4 4 2 2 2 6 2 3 1 2 3 6 2 3
34 31 25 24 24 29 28 15 13 6 9 1 9 8 12 4 4 4 4 3 3 3 1 1 3 4 5 5 4 1 2 3 2 1 1 3 3 4 4 1 1 7 4 4
29 28 24 22 23 25 25 18 15 8 9 3 5 4 3 3 4 3 5 3 2 3 2 2 1 1 5 3 4 4 3 3 4 4 1 6 7 8 3 2 2 7 6 7
32 27 23 22 23 24 22 20 17 13 9 9 5 7 6 4 2 3 5 4 2 2 2 2 3 1 1 1 2 5 5 3 3 3 3 6 10 4 1 1 7 8 8 10
32 28 27 23 23 25 18 23 18 15 12 10 11 11 9 9 8 7 4 3 5 2 2 1 2 2 1 1 1 3 2 1 2 3 2 2 9 7 7 3 4 6 9 12
32 30 28 25 24 25 20 23 23 22 23 18 5 8 8 7 8 9 3 3 5 2 4 2 1 1 2 1 0 1 3 5 1 5 5 3 5 5 6 8 8 10 10 12
32 29 28 27 26 23 19 28 27 17 12 6 5 7 6 6 6 5 6 8 7 8 4 2 1 0 2 3 1 0 2 1 2 3 7 9 12 14 12 13 14 14 16 15
32 29 28 27 25 22 26 26 17 12 6 6 8 7 8 5 8 9 11 9 7 3 1 1 2 1 1 3 2 2 4 0 1 3 11 5 4 14 17 15 12 12 17 20
30 29 28 27 24 28 27 8 6 8 24 10 4 5 6 9 9 9 8 8 5 3 2 2 1 1 1 1 2 6 7 7 5 3 10 11 17 13 5 14 19 19 16 16
33 30 29 28 32 31 9 6 19 18 10 7 6 4 4 8 6 5 7 6 4 3 1 1 2 1 2 1 3 7 5 3 3 6 9 4 11 14 20 16 17 18 11 13
34 31 30 30 29 21 5 13 26 14 8 6 4 3 4 6 3 3 4 3 3 3 2 1 2 1 3 3 9 3 2 2 1 2 6 9 12 14 14 14 15 13 13 11
34 33 31 28 16 10 8 25 16 8 5 6 4 5 4 8 4 4 3 2 1 1 2 1 1 3 4 6 7 5 5 3 7 9 8 7 8 13 15 14 14 14 13 14
35 35 9 7 13 21 22 7 2 2 3 4 3 8 3 9 7 4 4 3 2 1 2 1 2 4 12 5 7 9 7 7 7 7 6 9 12 13 15 16 14 15 14 14
37 9 6 23 29 9 4 4 2 2 2 3 4 6 6 7 3 3 5 3 2 2 2 2 2 3 5 10 10 8 6 7 6 8 7 8 10 12 14 14 14 14 15 15
13 12 28 18 5 4 4 2 1 2 4 6 7 8 9 6 4 3 3 2 2 2 8 2 3 3 12 12 9 5 6 7 6 8 9 9 9 9 10 10 11 12 13 13
34 8 7 6 2 3 7 7 2 3 9 10 11 3 6 5 3 3 3 3 3 7 2 4 4 8 11 9 7 5 6 5 5 7 10 10 10 11 11 11 11 11 13 10
6 7 5 3 2 4 3 2 4 7 16 22 19 9 5 4 3 3 4 3 4 3 3 5 3 11 11 7 4 2 2 4 5 7 9 12 11 12 12 12 12 13 12 7
3 4 4 3 6 6 9 13 12 14 27 24 13 7 5 2 2 1 2 3 4 5 4 2 7 9 8 6 3 5 5 5 6 9 12 15 16 15 14 13 12 12 11 9
3 4 5 8 7 3 8 17 21 24 27 16 7 3 3 2 3 3 6 4 6 3 3 4 4 6 7 6 8 7 7 9 11 15 18 19 18 15 15 14 13 10 11 12
4 4 12 5 13 11 15 17 15 29 13 3 4 4 4 3 2 2 3 4 3 8 5 2 4 6 7 10 11 9 10 12 14 18 18 18 18 19 15 16 14 10 10 13
Wind_Direction
237 240 204 206 212 191 169 161 185 181 174 202 165 223 201 201 155 169 280 296 149 236 185 212 126 151 66 143 143 32 92 196 118 144 3 71 302 217 217 122 230 63 143 290
234 220 192 205 208 194 164 172 127 174 184 211 198 218 176 223 153 184 180 222 307 243 185 123 113 104 17 149 157 175 193 141 101 137 219 168 223 212 252 24 57 179 133 245
235 208 190 204 202 186 170 162 139 162 207 258 277 170 181 167 210 137 215 333 221 215 160 212 137 116 150 161 127 335 346 185 97 175 111 195 187 206 219 138 124 207 221 259
230 197 193 198 197 185 179 186 168 174 181 235 230 232 168 172 160 238 209 197 253 167 176 163 128 103 134 181 164 224 311 166 86 327 37 76 279 221 231 195 210 187 242 257
225 190 191 198 194 183 187 185 165 178 138 223 197 180 213 186 118 158 183 262 142 249 57 61 170 155 178 174 166 187 118 170 120 284 165 247 262 257 240 231 226 227 252 274
211 191 188 197 194 188 184 201 177 157 159 194 191 181 167 189 118 70 16 34 221 137 77 8 359 350 3 324 149 192 167 137 140 207 90 290 284 227 217 225 226 221 233 241
199 182 191 201 198 194 194 180 164 175 171 204 180 156 124 133 140 140 87 348 318 47 16 303 287 214 151 351 40 32 15 94 50 311 332 224 217 49 45 214 241 223 264 299
187 179 192 201 196 197 203 182 164 173 125 125 103 140 127 106 123 76 127 42 81 70 337 253 140 171 163 163 110 229 126 160 168 185 204 288 166 156 117 147 268 206 228 319
177 178 190 198 197 199 203 189 172 117 123 57 159 134 168 150 146 136 108 64 55 74 273 268 204 188 205 155 143 316 309 242 183 345 256 253 127 116 85 71 23 72 62 13
175 180 188 196 199 196 198 187 171 134 104 90 119 115 165 71 100 96 117 134 69 29 137 188 302 119 349 159 186 149 168 215 209 234 237 292 146 138 180 128 147 71 37 11
175 178 188 195 189 184 179 175 168 155 105 87 94 99 106 127 57 130 131 123 80 82 135 174 216 197 248 17 92 160 165 179 214 185 200 246 125 110 96 108 39 29 14 358
173 177 187 186 185 176 171 163 163 146 109 120 115 110 121 114 102 110 80 103 45 121 117 303 298 223 141 333 187 15 325 200 213 195 233 89 189 71 79 60 44 22 354 345
175 185 177 182 184 173 176 160 149 131 106 101 84 68 90 130 143 130 109 124 167 189 122 102 233 201 1 202 96 4 209 65 290 15 16 76 130 97 80 34 6 346 338 330
176 182 179 180 175 166 170 153 144 121 114 105 83 72 83 99 135 127 112 136 131 140 120 143 149 285 19 7 264 288 109 40 280 289 310 336 70 55 19 347 334 327 318 321
178 179 176 175 166 158 157 144 137 126 122 113 118 88 42 104 122 115 112 114 113 114 137 218 155 152 250 217 47 244 194 324 53 42 28 352 338 334 330 330 334 323 318 321
176 180 172 165 152 153 147 112 144 115 122 105 111 92 56 92 103 99 103 100 101 79 14 23 91 181 251 326 237 100 67 71 45 307 326 308 312 325 315 322 312 307 302 308
177 171 165 157 153 159 171 156 149 142 113 98 113 108 136 125 102 82 66 75 91 63 60 291 350 204 196 256 236 123 81 22 333 320 320 355 324 323 325 325 323 319 288 288
171 162 155 152 156 161 126 134 147 131 98 93 108 94 146 158 125 100 107 78 59 40 4 319 257 197 237 253 237 234 142 282 281 145 307 308 311 314 309 307 313 315 314 319
160 150 143 137 151 155 126 144 137 98 91 108 112 141 154 169 125 106 90 140 150 25 285 236 92 213 229 228 211 163 206 241 273 291 306 315 316 324 328 322 311 312 308 303
155 138 138 120 133 123 125 129 142 79 67 86 86 116 126 158 148 160 125 193 149 187 157 139 232 260 254 212 201 228 236 273 288 299 318 315 320 320 327 328 322 314 310 309
150 147 86 135 133 126 91 100 135 126 79 117 118 134 127 165 158 135 204 168 145 219 150 225 248 268 204 208 213 223 254 286 291 288 287 291 302 314 318 324 325 321 314 311
157 135 123 131 128 96 108 87 87 193 163 146 129 127 116 126 138 131 180 155 134 219 138 240 252 237 162 188 206 237 273 285 283 282 293 305 312 312 307 310 316 322 322 325
127 115 128 152 135 105 173 168 202 155 162 161 149 130 124 121 131 120 149 155 186 128 210 235 225 156 173 189 211 233 254 269 280 294 300 309 309 313 308 304 305 304 308 321
174 157 108 173 172 232 182 159 127 131 146 142 133 118 114 118 148 145 146 162 153 229 242 236 204 174 186 206 238 183 277 308 317 314 309 308 307 310 308 302 303 305 312 312
108 108 136 177 118 87 110 120 116 129 138 136 111 90 105 90 123 215 129 147 227 217 227 224 143 171 192 194 227 286 306 300 297 307 311 307 302 298 300 303 307 305 306 305
104 91 91 124 89 118 119 124 121 137 134 120 99 109 98 150 148 122 207 176 221 242 169 171 202 212 214 234 280 285 278 286 299 306 311 310 308 294 290 290 296 304 299 293
57 54 114 122 96 122 137 144 146 155 130 110 132 106 176 105 105 229 205 212 222 147 154 133 301 262 259 281 286 285 282 291 304 309 310 307 301 297 282 279 289 291 299 299
Height
1425 1431 1437 1445 1450 1454 1459 1464 1467 1468 1471 1474 1471 1467 1460 1458 1458 1461 1461 1460 1458 1458 1458 1459 1459 1465 1464 1468 1469 1470 1472 1479 1490 1488 1486 1486 1487 1485 1487 1504 1499 1498 1504 1496
1416 1424 1429 1439 1444 1448 1453 1460 1463 1467 1469 1467 1465 1457 1456 1457 1457 1458 1460 1458 1459 1456 1457 1463 1461 1465 1470 1469 1470 1473 1472 1482 1494 1494 1490 1487 1489 1484 1483 1484 1493 1500 1509 1494
1410 1417 1425 1433 1439 1444 1450 1455 1461 1466 1467 1463 1458 1451 1453 1456 1457 1457 1459 1457 1458 1457 1458 1458 1462 1467 1471 1472 1472 1473 1473 1474 1479 1488 1479 1480 1488 1481 1480 1488 1503 1493 1492 1482
1404 1411 1420 1428 1434 1440 1446 1448 1447 1451 1459 1457 1452 1448 1448 1452 1456 1458 1458 1457 1457 1457 1460 1458 1461 1467 1471 1473 1473 1474 1475 1487 1490 1478 1477 1480 1479 1480 1480 1488 1484 1499 1485 1481
1399 1405 1416 1423 1430 1435 1441 1442 1443 1447 1444 1445 1448 1449 1450 1449 1455 1456 1456 1457 1455 1457 1460 1462 1464 1462 1467 1469 1474 1475 1476 1488 1483 1481 1477 1481 1485 1482 1479 1476 1477 1481 1481 1481
1394 1401 1410 1418 1423 1429 1434 1436 1438 1440 1444 1445 1446 1446 1446 1448 1452 1459 1458 1456 1457 1458 1467 1468 1468 1467 1467 1467 1469 1472 1475 1484 1490 1488 1480 1482 1490 1476 1475 1473 1472 1474 1480 1474
1388 1397 1407 1414 1418 1424 1427 1429 1434 1438 1444 1443 1443 1445 1448 1450 1454 1457 1461 1461 1460 1468 1468 1468 1469 1469 1469 1470 1470 1470 1474 1480 1488 1493 1488 1497 1468 1466 1466 1469 1468 1470 1471 1471
1386 1395 1404 1410 1415 1420 1425 1428 1431 1433 1439 1441 1445 1448 1450 1455 1457 1460 1462 1466 1467 1467 1468 1467 1469 1469 1469 1469 1470 1472 1472 1477 1486 1487 1489 1474 1469 1468 1468 1471 1469 1465 1469 1471
1384 1394 1402 1407 1412 1417 1423 1426 1429 1432 1437 1446 1446 1449 1453 1455 1457 1462 1465 1467 1467 1468 1467 1467 1469 1473 1465 1471 1474 1473 1474 1475 1482 1486 1487 1478 1470 1469 1468 1469 1476 1469 1470 1471
1383 1392 1400 1405 1409 1414 1421 1425 1429 1431 1438 1446 1447 1449 1453 1454 1454 1459 1464 1467 1468 1469 1468 1471 1472 1465 1464 1472 1469 1477 1478 1477 1486 1485 1486 1478 1466 1467 1468 1474 1482 1472 1472 1472
1382 1392 1399 1403 1409 1414 1419 1423 1427 1429 1437 1448 1450 1450 1453 1455 1456 1459 1466 1469 1471 1472 1473 1474 1470 1468 1467 1465 1462 1466 1473 1479 1479 1477 1479 1484 1464 1466 1469 1472 1470 1470 1470 1470
1382 1391 1398 1403 1408 1413 1418 1420 1425 1428 1433 1448 1451 1452 1455 1457 1459 1461 1464 1467 1468 1470 1471 1474 1471 1467 1468 1465 1470 1468 1476 1469 1473 1473 1472 1464 1465 1467 1468 1469 1470 1470 1470 1470
1383 1391 1397 1402 1408 1412 1416 1419 1424 1428 1439 1451 1455 1456 1457 1459 1460 1461 1465 1468 1469 1470 1470 1473 1473 1469 1471 1470 1469 1465 1467 1469 1474 1471 1466 1465 1466 1468 1469 1471 1472 1471 1470 1469
1384 1391 1396 1402 1408 1412 1417 1419 1423 1427 1435 1446 1460 1459 1459 1461 1462 1463 1464 1467 1469 1471 1472 1472 1472 1470 1473 1473 1473 1473 1471 1470 1468 1467 1465 1466 1469 1470 1471 1471 1471 1470 1469 1467
1385 1390 1395 1402 1407 1412 1419 1423 1425 1428 1433 1445 1459 1462 1462 1463 1464 1466 1466 1469 1471 1473 1474 1473 1473 1474 1475 1472 1472 1472 1467 1468 1473 1474 1474 1473 1470 1469 1469 1468 1467 1466 1465 1463
1386 1390 1396 1403 1408 1415 1420 1425 1429 1428 1430 1438 1457 1465 1466 1466 1466 1468 1470 1470 1472 1474 1475 1475 1475 1475 1476 1477 1472 1465 1465 1467 1469 1470 1469 1471 1470 1469 1467 1465 1464 1462 1461 1460
1387 1392 1397 1403 1408 1415 1418 1421 1425 1430 1432 1437 1458 1465 1467 1469 1470 1472 1473 1473 1474 1476 1476 1477 1477 1477 1476 1475 1474 1466 1466 1467 1467 1469 1467 1468 1468 1467 1465 1464 1461 1458 1456 1455
1387 1394 1400 1407 1413 1418 1421 1422 1426 1431 1433 1439 1452 1465 1468 1469 1470 1473 1474 1475 1477 1477 1478 1478 1478 1477 1476 1473 1463 1464 1465 1465 1465 1466 1466 1467 1466 1464 1461 1459 1458 1456 1454 1452
1390 1399 1403 1411 1418 1421 1423 1426 1430 1433 1437 1440 1447 1457 1463 1468 1469 1472 1475 1476 1477 1480 1478 1478 1479 1472 1472 1461 1460 1462 1463 1462 1462 1462 1461 1460 1460 1459 1458 1456 1455 1453 1451 1449
1395 1403 1407 1413 1419 1424 1428 1435 1435 1435 1436 1440 1446 1452 1460 1465 1467 1472 1475 1475 1474 1475 1476 1477 1476 1466 1458 1458 1459 1460 1461 1460 1459 1459 1458 1457 1456 1456 1455 1456 1453 1453 1451 1448
1395 1400 1407 1414 1420 1425 1428 1433 1436 1438 1441 1442 1446 1450 1455 1462 1465 1467 1470 1471 1472 1471 1473 1474 1467 1464 1453 1455 1457 1458 1459 1458 1457 1457 1456 1455 1454 1453 1453 1452 1452 1449 1448 1447
1393 1396 1408 1418 1422 1426 1429 1434 1437 1436 1436 1442 1445 1449 1453 1460 1463 1465 1469 1468 1471 1469 1473 1471 1467 1451 1450 1453 1454 1456 1456 1456 1456 1455 1455 1453 1451 1449 1447 1446 1446 1446 1446 1444
1392 1400 1408 1412 1421 1426 1423 1430 1431 1433 1432 1436 1440 1447 1452 1458 1462 1464 1466 1468 1468 1469 1470 1462 1455 1448 1450 1451 1453 1453 1453 1453 1453 1453 1452 1451 1449 1447 1445 1444 1443 1441 1441 1441
1392 1394 1407 1408 1418 1414 1410 1411 1413 1419 1424 1432 1438 1444 1450 1456 1460 1461 1463 1463 1465 1465 1469 1459 1446 1446 1448 1449 1449 1449 1449 1450 1451 1451 1450 1448 1446 1443 1441 1440 1439 1439 1438 1436
1387 1389 1403 1406 1406 1408 1410 1412 1415 1419 1425 1430 1438 1444 1449 1455 1461 1460 1461 1464 1464 1458 1455 1447 1444 1445 1447 1447 1447 1447 1447 1448 1448 1448 1446 1445 1443 1440 1439 1438 1437 1436 1436 1435
1390 1394 1401 1404 1406 1412 1412 1414 1418 1423 1425 1431 1437 1444 1450 1454 1457 1462 1464 1463 1459 1449 1442 1443 1444 1445 1445 1445 1445 1445 1445 1445 1444 1444 1443 1441 1439 1437 1435 1435 1435 1433 1433 1434
1391 1397 1398 1400 1400 1405 1411 1415 1419 1423 1425 1432 1437 1444 1449 1450 1457 1457 1452 1452 1443 1440 1441 1443 1444 1444 1444 1443 1442 1442 1442 1441 1440 1439 1438 1436 1434 1433 1430 1429 1431 1430 1429 1430